Location: Waco, TX
(31.5480°N, 97.1670°W)
Time: 21:46:56
(UTC-05:00)

ISS - Pass Details

Date: 19 September 2018
Orbit: 403 x 408 km, 51.6° (Epoch: 25 September)

Event Time Altitude Azimuth Distance (km) Brightness Sun altitude
Rises 22:04:42 0° 255° (WSW) 2,322 0.7 -33.0°
Enters shadow 22:06:04 - 263° (W) 1,823 0.2 -33.2°
Reaches altitude 10° 22:07:09 10° 273° (W) 1,464 - -33.4°
Maximum altitude 22:09:40 20° 323° (NW) 1,001 - -33.9°
Drops below altitude 10° 22:12:12 10° 14° (NNE) 1,467 - -34.4°
Sets 22:14:39 0° 31° (NNE) 2,329 - -34.9°
